[[{"header":{"parameterUnit":"m.s-1","parameterCategory":1,"la1":30.2991,"la2":30.254,"lo1":-89.0895,"lo2":-89.0444,"dy":0.0017,"dx":0.0017,"nx":28,"ny":28,"refTime":"2023-11-14T03:00:00:Z","depth":0,"parameterNumber":2,"parameterNumberName":"U-component_of_WINDS"},"data":[0,0,0,0,0,0,0,0,0,0,0,0,0,0,0,0,0,0,0,0,0,0,0,0,0,0,0,0,0,0,0,0,0,0,0,0,0,0,0,0,0,0,0,0,0,0,0,0,0,0,0,0,0,0,0,0,0,0,-6.4913,-6.4914,0,-6.5017,-6.5018,-6.5019,-6.4893,-6.4888,-6.4883,-6.4879,-6.4986,-6.4993,-6.5001,0,0,0,0,0,0,0,0,0,0,0,0,0,-6.4604,-6.461,-6.4913,-6.4914,-6.4915,-6.5017,-6.5018,-6.502,-6.4894,-6.4888,-6.4882,-6.4877,-6.4984,-6.4993,-6.5001,0,0,0,0,0,0,0,0,0,0,0,0,0,-6.4726,-6.4612,-6.4913,-6.4865,-6.4861,-6.5017,-6.5018,-6.502,-6.4895,-6.4888,-6.4881,-6.4874,-6.4981,-6.4992,-6.5002,-6.521,0,0,-6.5035,-6.504,0,0,0,0,0,0,0,0,-6.4719,-6.4737,-6.487,-6.4868,-6.4865,-6.4935,-6.4948,-6.5084,-6.4897,-6.4882,-6.4879,-6.4871,-6.4975,-6.4986,-6.5021,-6.5215,-6.5219,-6.5036,-6.5043,-6.5048,-6.5051,0,0,0,0,0,0,0,-6.4711,-6.4732,-6.4954,-6.4872,-6.4869,-6.4838,-6.4847,-6.4973,-6.4967,-6.4883,-6.4874,-6.4888,-6.4972,-6.5011,-6.5022,-6.5221,-6.5036,-6.5046,-6.5052,-6.5057,-6.5589,-6.5596,0,0,0,0,0,0,-6.4708,-6.4726,-6.4951,-6.4957,-6.4773,-6.4849,-6.486,-6.4919,-6.4965,-6.4965,-6.4894,-6.4882,-6.4996,-6.501,-6.5026,-6.5271,-6.5048,-6.5058,-6.5064,-6.5581,-6.559,-6.5599,0,0,0,0,0,0,-6.4702,-6.4729,-6.4946,-6.4839,-6.4864,-6.4862,-6.493,-6.4925,-6.4964,-6.4973,-6.4971,-6.4935,-6.4991,-6.501,-6.5165,-6.5273,-6.5063,-6.5072,-6.5572,-6.5584,-6.5595,-6.5764,0,0,0,0,0,0,-6.4694,-6.4728,-6.4807,-6.4842,-6.4871,-6.5085,-6.4936,-6.4932,-6.4983,-6.4968,-6.5011,-6.5011,-6.4987,-6.5149,-6.5175,-6.5284,-6.5081,-6.5563,-6.5577,-6.5591,-6.5748,-6.5779,-6.5806,0,0,0,0,0,-6.4683,-6.4851,-6.4812,-6.4839,-6.497,-6.5091,-6.5107,-6.5075,-6.4992,-6.5071,-6.5077,-6.501,-6.5257,-6.5166,-6.5194,-6.5308,-6.5556,-6.5573,-6.559,-6.5736,-6.5773,-6.5805,0,0,0,0,0,0,-6.4829,-6.4855,-6.4811,-6.4996,-6.5042,-6.5069,-6.5169,-6.5117,-6.5188,-6.5171,-6.5128,-6.5139,-6.5303,-6.532,-6.5219,-6.551,-6.5392,-6.5416,-6.5493,-6.5529,-6.5558,-6.555,-6.509,0,0,0,0,0,-6.4883,-6.4979,-6.4996,-6.5157,-6.5182,-6.5172,-6.5224,-6.5195,-6.5241,-6.526,-6.5277,-6.5325,-6.5413,-6.5472,-6.5553,-6.575,-6.5757,-6.5842,-6.5871,-6.5894,-6.5916,-6.602,-6.6058,-6.5655,-6.5655,-6.5655,0,0,-6.4995,-6.502,-6.5084,-6.5187,-6.522,-6.532,-6.5189,-6.5302,-6.5376,-6.5277,-6.5424,-6.5438,-6.5488,-6.5664,-6.5743,-6.5684,-6.6028,-6.5916,-6.5935,-6.5943,-6.6042,-6.608,-6.6114,-6.5667,-6.5665,-6.5663,0,0,-6.525,-6.528,-6.5416,-6.5451,-6.5502,-6.5494,-6.5527,-6.5562,-6.5567,-6.5714,-6.5641,-6.5729,-6.5881,-6.592,-6.5959,-6.6228,-6.6169,-6.6256,-6.6407,-6.6509,-6.6541,-6.6569,-6.6664,-6.6699,-6.6277,-6.6277,-6.6277,0,-6.5383,-6.5532,-6.5493,-6.5611,-6.5658,-6.5572,-6.571,-6.5746,-6.5821,-6.5856,-6.5788,-6.5977,-6.6005,-6.6189,-6.6254,-6.6289,-6.6325,-6.6251,-6.6539,-6.6567,-6.6592,-6.6683,-6.6719,-6.6287,-6.6286,-6.6285,-6.6284,0,-6.5693,-6.5797,-6.5902,-6.5976,-6.6034,-6.6162,-6.6142,-6.6206,-6.6171,-6.617,-6.6319,-6.6349,-6.6435,-6.6476,-6.6444,-6.6656,-6.6617,-6.6546,-6.6426,-6.6642,-6.6726,-6.6761,-6.6302,-6.6298,-6.6295,-6.6293,0,0,-6.6045,-6.6095,-6.6134,-6.6166,-6.6215,-6.6295,-6.6418,-6.6501,-6.6557,-6.6611,-6.6713,-6.6843,-6.6776,-6.6822,-6.6793,-6.6883,-6.7093,-6.6799,-6.68,-6.6853,-6.7327,-6.7382,-6.7423,-6.7054,-6.706,-6.7065,-6.7323,0,-6.6301,-6.6514,-6.6482,-6.6687,-6.6783,-6.6702,-6.6809,-6.685,-6.6852,-6.6933,-6.6934,-6.7027,-6.6932,-6.6959,-6.7044,-6.705,-6.7188,-6.703,-6.7148,-6.7153,-6.7139,-6.7467,-6.7525,-6.7767,-6.7356,-6.7362,-6.7366,0,-6.6629,-6.6694,-6.6909,-6.6942,-6.6981,-6.7078,-6.7151,-6.7229,-6.7274,-6.7269,-6.7319,-6.7273,-6.7395,-6.7273,-6.7441,-6.7334,-6.738,-6.739,-6.7398,-6.7409,-6.7273,-6.7487,-6.7843,-6.788,-6.7417,-6.7413,-6.741,0,-6.6864,-6.7006,-6.7153,-6.7183,-6.7225,-6.7295,-6.7316,-6.7353,-6.7405,-6.7469,-6.7502,-6.7579,-6.7622,-6.7683,-6.7659,-6.7572,-6.7832,-6.7707,-6.7831,-6.7832,-6.789,-6.7887,-6.826,-6.7919,-6.7918,-6.7918,-6.7917,0,-6.7154,-6.7289,-6.7259,-6.735,-6.7498,-6.7459,-6.7607,-6.7617,-6.7651,-6.7742,-6.7677,-6.7763,-6.7726,-6.781,-6.7792,-6.7933,-6.7953,-6.7952,-6.7946,-6.7958,-6.7959,-6.7989,-6.7971,-6.7927,-6.7925,-6.7923,-6.7922,0,-6.7443,-6.7429,-6.7583,-6.761,-6.7619,-6.7728,-6.775,-6.7834,-6.783,-6.7946,-6.797,-6.7964,-6.8059,-6.8041,-6.8146,-6.8134,-6.8311,-6.8284,-6.8296,-6.829,-6.8414,-6.8403,-6.882,-6.8873,-6.8498,-6.8501,-6.8504,0,-6.7629,-6.7731,-6.7768,-6.7824,-6.785,-6.7941,-6.7993,-6.7958,-6.8015,-6.8073,-6.8151,-6.824,-6.8309,-6.8465,-6.847,-6.855,-6.8524,-6.8665,-6.8536,-6.8545,-6.8526,-6.8521,-6.8531,-6.8691,-6.8695,-6.8698,-6.8701,0,-6.7961,-6.7949,-6.8026,-6.8102,-6.8166,-6.8224,-6.8276,-6.8325,-6.8294,-6.8362,-6.8458,-6.8512,-6.8619,-6.8708,-6.8782,-6.8803,-6.8748,-6.8742,-6.8774,-6.8789,-6.8792,-6.8792,-6.8367,-6.8732,-6.8729,-6.8727,-6.8725,-6.8724,-6.8205,-6.8291,-6.833,-6.8419,-6.8454,-6.8503,-6.8583,-6.8589,-6.8668,-6.8752,-6.8727,-6.8836,-6.8877,-6.8971,-6.9,-6.9085,-6.9032,-6.908,-6.9092,-6.9104,-6.9119,-6.8778,-6.9098,-6.9097,-6.9096,-6.9095,-6.9095,0,-6.8533,-6.8554,-6.8636,-6.871,-6.878,-6.872,-6.8774,-6.8836,-6.8933,-6.8976,-6.9045,-6.9156,-6.9242,-6.9253,-6.9334,-6.94,-6.9376,-6.9422,-6.9417,-6.9423,-6.9162,-6.9125,-6.944,-6.9439,-6.9439,-6.9439,-6.9439,-6.9439,-6.8713,-6.8855,-6.8847,-6.9006,-6.9026,-6.9132,-6.9168,-6.9213,-6.9247,-6.9373,-6.9444,-6.945,-6.948,-6.9562,-6.9638,-6.9639,-6.9672,-6.9728,-6.9719,-6.9476,-6.9441,-6.9409,-6.9374,-6.9735,-6.9736,-6.9973,-6.9975,-6.9977]},{"header":{"parameterUnit":"m.s-1","parameterCategory":1,"la1":30.2991,"la2":30.254,"lo1":-89.0895,"lo2":-89.0444,"dy":0.0017,"dx":0.0017,"nx":28,"ny":28,"refTime":"2023-11-14T03:00:00:Z","depth":0,"parameterNumber":3,"parameterNumberName":"V-component_of_WINDS"},"data":[0,0,0,0,0,0,0,0,0,0,0,0,0,0,0,0,0,0,0,0,0,0,0,0,0,0,0,0,0,0,0,0,0,0,0,0,0,0,0,0,0,0,0,0,0,0,0,0,0,0,0,0,0,0,0,0,0,0,-3.8237,-3.8237,0,-3.8269,-3.8269,-3.8269,-3.8214,-3.8212,-3.821,-3.8208,-3.8239,-3.8242,-3.8244,0,0,0,0,0,0,0,0,0,0,0,0,0,-3.8126,-3.8128,-3.8237,-3.8237,-3.8238,-3.8269,-3.8269,-3.8269,-3.8214,-3.8212,-3.821,-3.8207,-3.8238,-3.8242,-3.8245,0,0,0,0,0,0,0,0,0,0,0,0,0,-3.8168,-3.8129,-3.8237,-3.8214,-3.8212,-3.8268,-3.8269,-3.8269,-3.8215,-3.8212,-3.8209,-3.8206,-3.8237,-3.8241,-3.8245,-3.8325,0,0,-3.8257,-3.8258,0,0,0,0,0,0,0,0,-3.8165,-3.8172,-3.8217,-3.8216,-3.8214,-3.8234,-3.8241,-3.8288,-3.8215,-3.8214,-3.8208,-3.8205,-3.824,-3.8243,-3.8255,-3.8326,-3.8328,-3.8257,-3.8259,-3.8261,-3.8262,0,0,0,0,0,0,0,-3.8162,-3.817,-3.8249,-3.8218,-3.8216,-3.8201,-3.8204,-3.825,-3.8242,-3.8214,-3.821,-3.8214,-3.8238,-3.8252,-3.8256,-3.8328,-3.8257,-3.826,-3.8263,-3.8264,-3.8464,-3.8466,0,0,0,0,0,0,-3.8163,-3.8168,-3.8248,-3.825,-3.8182,-3.8205,-3.8208,-3.8231,-3.8241,-3.824,-3.8216,-3.8211,-3.8247,-3.8251,-3.8257,-3.8349,-3.8261,-3.8265,-3.8267,-3.8461,-3.8464,-3.8467,0,0,0,0,0,0,-3.8161,-3.817,-3.8247,-3.8208,-3.8217,-3.821,-3.8235,-3.8233,-3.8246,-3.8244,-3.8242,-3.8232,-3.8245,-3.8251,-3.8308,-3.8349,-3.8266,-3.827,-3.8457,-3.8462,-3.8466,-3.8536,0,0,0,0,0,0,-3.8158,-3.817,-3.8201,-3.8209,-3.8219,-3.8299,-3.8238,-3.8235,-3.8253,-3.8247,-3.8257,-3.8257,-3.8243,-3.8302,-3.8312,-3.8353,-3.8273,-3.8453,-3.8459,-3.8464,-3.853,-3.8542,-3.8553,0,0,0,0,0,-3.8154,-3.822,-3.8203,-3.8213,-3.8258,-3.8301,-3.8307,-3.829,-3.8257,-3.8287,-3.8285,-3.8256,-3.8344,-3.8309,-3.8319,-3.8362,-3.8451,-3.8458,-3.8464,-3.8525,-3.854,-3.8553,0,0,0,0,0,0,-3.8217,-3.822,-3.8202,-3.8272,-3.8287,-3.8292,-3.833,-3.8307,-3.8331,-3.8324,-3.8302,-3.8305,-3.8366,-3.837,-3.8331,-3.8439,-3.8391,-3.84,-3.8434,-3.8448,-3.846,-3.8457,-3.8276,0,0,0,0,0,-3.8239,-3.8274,-3.8276,-3.8338,-3.8346,-3.8337,-3.8355,-3.8341,-3.8355,-3.8361,-3.8363,-3.8378,-3.8408,-3.8428,-3.8456,-3.853,-3.8531,-3.8565,-3.8576,-3.8586,-3.8593,-3.8631,-3.8645,-3.849,-3.8489,-3.8489,0,0,-3.8285,-3.8291,-3.8315,-3.835,-3.836,-3.8396,-3.8342,-3.8384,-3.841,-3.8367,-3.842,-3.8423,-3.8437,-3.8502,-3.8531,-3.8507,-3.8637,-3.8594,-3.8602,-3.8604,-3.8639,-3.8654,-3.8667,-3.8494,-3.8493,-3.8493,0,0,-3.8386,-3.8396,-3.8448,-3.8458,-3.8473,-3.8466,-3.8479,-3.8487,-3.8487,-3.854,-3.8508,-3.8539,-3.8592,-3.8603,-3.8616,-3.872,-3.8693,-3.873,-3.8789,-3.8826,-3.8838,-3.8849,-3.8885,-3.8898,-3.8738,-3.8738,-3.8738,0,-3.8441,-3.8496,-3.8477,-3.852,-3.8536,-3.8498,-3.855,-3.8561,-3.8584,-3.8595,-3.8569,-3.8634,-3.8641,-3.8707,-3.8732,-3.8744,-3.8756,-3.8728,-3.8838,-3.8849,-3.8858,-3.8892,-3.8906,-3.8742,-3.8741,-3.8741,-3.8741,0,-3.8562,-3.86,-3.864,-3.8663,-3.8683,-3.873,-3.8718,-3.874,-3.8724,-3.872,-3.8773,-3.878,-3.8808,-3.8823,-3.8808,-3.8887,-3.8871,-3.8842,-3.8794,-3.8878,-3.8909,-3.8922,-3.8748,-3.8746,-3.8745,-3.8744,0,0,-3.8705,-3.8716,-3.8731,-3.874,-3.8753,-3.8782,-3.8826,-3.8854,-3.8873,-3.889,-3.8926,-3.8971,-3.8943,-3.8958,-3.8943,-3.8975,-3.9055,-3.8942,-3.8941,-3.8961,-3.9141,-3.9162,-3.9177,-3.9038,-3.9041,-3.9043,-3.9139,0,-3.8804,-3.8882,-3.8865,-3.8941,-3.8974,-3.8939,-3.8977,-3.8989,-3.8986,-3.9013,-3.901,-3.9042,-3.9004,-3.9012,-3.9042,-3.9039,-3.9091,-3.9032,-3.907,-3.9072,-3.9067,-3.9194,-3.9217,-3.9307,-3.9151,-3.9153,-3.9155,0,-3.8932,-3.8953,-3.9032,-3.9038,-3.9051,-3.9087,-3.9109,-3.9136,-3.9148,-3.9143,-3.9159,-3.9138,-3.9181,-3.9133,-3.919,-3.9151,-3.9165,-3.9166,-3.9169,-3.9171,-3.9118,-3.9198,-3.9336,-3.9349,-3.9174,-3.9172,-3.9171,0,-3.9026,-3.9074,-3.9127,-3.9136,-3.9145,-3.917,-3.9175,-3.9184,-3.9201,-3.9221,-3.9231,-3.9256,-3.9269,-3.9288,-3.9274,-3.924,-3.9333,-3.9285,-3.9329,-3.933,-3.935,-3.9349,-3.9491,-3.9362,-3.9362,-3.9361,-3.9361,0,-3.9138,-3.9188,-3.9169,-3.9202,-3.9255,-3.9235,-3.9289,-3.9289,-3.9297,-3.9328,-3.9299,-3.9329,-3.9308,-3.9336,-3.9325,-3.9373,-3.938,-3.9376,-3.9373,-3.9378,-3.9379,-3.9387,-3.938,-3.9365,-3.9364,-3.9363,-3.9363,0,-3.9252,-3.9242,-3.9297,-3.9301,-3.9303,-3.9342,-3.9344,-3.9374,-3.9368,-3.9408,-3.9416,-3.9407,-3.9438,-3.9425,-3.9458,-3.945,-3.9512,-3.9501,-3.9508,-3.9505,-3.955,-3.9545,-3.9701,-3.972,-3.958,-3.9581,-3.9583,0,-3.9324,-3.9361,-3.9368,-3.9387,-3.9394,-3.9424,-3.9441,-3.9423,-3.9441,-3.9457,-3.9484,-3.9512,-3.9534,-3.9584,-3.958,-3.9605,-3.9593,-3.9646,-3.9596,-3.96,-3.9592,-3.9589,-3.9592,-3.9655,-3.9657,-3.9658,-3.9659,0,-3.9453,-3.9445,-3.9471,-3.9494,-3.9515,-3.9533,-3.9548,-3.9564,-3.9546,-3.9569,-3.96,-3.9616,-3.9649,-3.9677,-3.9698,-3.9702,-3.9678,-3.9675,-3.9686,-3.9692,-3.9694,-3.9692,-3.9534,-3.9671,-3.967,-3.9669,-3.9669,-3.9668,-3.9547,-3.9577,-3.9586,-3.9615,-3.9624,-3.9638,-3.9666,-3.9663,-3.9689,-3.9714,-3.9702,-3.9737,-3.9746,-3.9772,-3.978,-3.9806,-3.9786,-3.9803,-3.9807,-3.9811,-3.9816,-3.9691,-3.981,-3.981,-3.981,-3.9809,-3.9809,0,-3.9672,-3.9676,-3.9702,-3.9724,-3.9746,-3.9721,-3.9736,-3.9756,-3.9788,-3.9799,-3.982,-3.9855,-3.9881,-3.9879,-3.9903,-3.9925,-3.9914,-3.9932,-3.9929,-3.993,-3.9834,-3.9821,-3.994,-3.994,-3.994,-3.994,-3.994,-3.994,-3.9739,-3.9789,-3.9782,-3.9835,-3.9839,-3.9873,-3.9884,-3.9896,-3.9904,-3.9944,-3.9966,-3.9965,-3.997,-3.9994,-4.0016,-4.0015,-4.0025,-4.0046,-4.0041,-3.995,-3.9937,-3.9925,-3.9912,-4.0049,-4.0049,-4.0134,-4.0135,-4.0136]}]]